GW1374 Weather Reports


Display with metric or nautical units.
time (UTC)temp
F
wind
direction
speed
MPH
gust
MPH
rain 1hr
in
rain 24hr
in
rain mn
in
humidity
%
barometer
mb
20260903221558 75 51 0.0 1.0 0.00 1.23 0.13 84 1013.1
20260903220117 76 0 0.0 2.0 0.00 1.23 0.13 83 1012.9
20260903214601 76 0 0.0 3.0 0.00 1.23 0.13 83 1012.9
20260903213056 76 0 0.0 3.0 0.00 1.23 0.13 84 1013.2
20260903211559 76 325 0.0 5.0 0.00 1.23 0.13 84 1013.1
20260903210114 77 0 0.0 5.0 0.00 1.23 0.13 82 1013.3
20260903204556 77 0 0.0 1.0 0.00 1.23 0.13 84 1013.3
20260903203053 77 0 0.0 3.0 0.00 1.23 0.13 82 1013.6
20260903201554 77 0 0.0 2.0 0.00 1.23 0.13 82 1013.7
20260903200059 77 247 1.0 4.0 0.00 1.23 0.13 83 1013.5
20260903194555 77 9 0.0 2.0 0.00 1.23 0.13 82 1013.5
20260903193052 77 293 1.0 3.0 0.00 1.23 0.13 81 1013.5
20260903191602 77 41 0.0 3.0 0.00 1.23 0.13 82 1013.7
20260903190100 76 239 0.0 2.0 0.00 1.23 0.13 83 1014.0
20260903184559 76 162 0.0 3.0 0.00 1.23 0.13 82 1014.1
20260903183057 77 0 0.0 4.0 0.00 1.23 0.13 82 1014.1
20260903181558 76 309 1.0 4.0 0.00 1.23 0.13 81 1014.2
20260903180101 75 275 0.0 3.0 0.00 1.23 0.13 83 1014.3
20260903174554 75 0 0.0 4.0 0.00 1.23 0.13 85 1014.4
20260903173053 75 178 0.0 2.0 0.00 1.23 0.13 84 1014.5
20260903171613 75 221 0.0 8.0 0.00 1.23 0.13 86 1014.6
20260903170054 74 257 1.0 5.0 0.00 1.23 0.13 87 1014.5
20260903164606 73 0 1.0 2.0 0.00 1.23 0.13 89 1014.6
20260903163047 72 247 0.0 4.0 0.00 1.23 0.13 91 1014.7
20260903161557 71 111 0.0 2.0 0.00 1.23 0.13 94 1014.9
20260903154549 69 0 0.0 2.0 0.00 1.32 0.13 96 1015.3
20260903153055 69 273 1.0 2.0 0.00 1.32 0.13 97 1015.4
20260903151553 69 273 1.0 2.0 0.00 1.32 0.13 97 1015.6
20260903150059 68 273 1.0 2.0 0.00 1.32 0.13 98 1015.4
20260903144553 68 273 1.0 2.0 0.00 1.45 0.13 98 1015.4
20260903143111 68 273 1.0 2.0 0.00 1.45 0.13 98 1015.3
20260903141552 68 273 1.0 2.0 0.00 1.45 0.13 98 1015.2
20260903140103 67 273 1.0 2.0 0.00 1.45 0.13 98 1015.2
20260903134556 67 273 1.0 2.0 0.00 1.45 0.13 98 1015.3
20260903133108 67 273 1.0 2.0 0.00 1.45 0.13 98 1015.0
20260903131606 67 273 1.0 2.0 0.00 1.45 0.13 98 1015.2
20260903130103 67 273 1.0 2.0 0.00 1.45 0.13 98 1015.2
20260903124559 66 273 1.0 2.0 0.00 1.45 0.13 98 1015.3
20260903123054 66 273 1.0 2.0 0.00 1.45 0.13 98 1015.4
20260903121552 65 273 1.0 2.0 0.00 1.45 0.13 98 1015.2
20260903120052 65 273 1.0 2.0 0.00 1.45 0.13 98 1014.9
20260903114555 64 273 1.0 2.0 0.00 1.45 0.13 98 1014.9
20260903113053 64 273 1.0 2.0 0.00 1.45 0.13 98 1014.9
20260903111603 64 273 1.0 2.0 0.00 1.45 0.13 98 1014.5
20260903110054 64 273 1.0 2.0 0.00 1.45 0.13 98 1014.5
20260903104554 64 273 1.0 2.0 0.00 1.45 0.13 98 1014.5
20260903103057 64 273 1.0 2.0 0.00 1.45 0.13 98 1014.5
20260903101558 64 273 1.0 2.0 0.00 1.45 0.13 98 1014.6
20260903100054 64 273 1.0 2.0 0.00 1.45 0.13 98 1014.7
20260903094609 64 273 1.0 2.0 0.00 1.45 0.13 98 1014.7
20260903093104 64 273 1.0 2.0 0.00 1.45 0.13 98 1014.6
20260903091553 64 273 1.0 2.0 0.00 1.45 0.13 98 1014.9
20260903090051 64 273 1.0 2.0 0.00 1.45 0.13 98 1014.9
20260903084556 64 273 1.0 2.0 0.00 1.45 0.13 98 1014.7
20260903083055 64 273 1.0 2.0 0.00 1.45 0.13 98 1014.5
20260903081551 64 273 1.0 2.0 0.00 1.45 0.13 98 1015.0
20260903080107 64 273 1.0 2.0 0.00 1.45 0.13 98 1014.8
20260903074554 64 273 1.0 2.0 0.00 1.45 0.13 98 1014.8
20260903073052 64 273 1.0 2.0 0.00 1.45 0.13 98 1014.7
20260903071601 64 273 1.0 2.0 0.00 1.45 0.13 98 1014.9
20260903070053 64 273 1.0 2.0 0.00 1.45 0.13 98 1014.9
20260903064552 64 273 1.0 2.0 0.00 1.45 0.13 98 1015.1
20260903063059 64 273 1.0 2.0 0.01 1.45 0.13 98 1014.5
20260903061605 64 273 1.0 2.0 0.01 1.45 0.13 98 1015.1
20260903060054 64 273 1.0 2.0 0.01 1.45 0.13 98 1015.4
20260903054550 64 273 1.0 2.0 0.01 1.45 0.13 97 1015.6
20260903053054 64 273 1.0 2.0 0.02 1.44 0.12 97 1015.2
20260903051553 64 273 1.0 2.0 0.07 1.44 0.12 98 1015.3
20260903050052 64 273 1.0 2.0 0.12 1.44 0.12 98 1015.6
20260903044556 64 273 1.0 2.0 0.26 1.44 0.12 97 1015.2
20260903043053 65 273 1.0 2.0 0.26 1.42 0.10 97 1015.3
20260903041552 65 273 1.0 2.0 0.24 1.37 0.05 97 1016.6
20260903040100 65 273 1.0 2.0 0.22 1.32 0.00 97 1017.3
20260903034600 66 273 1.0 2.0 0.13 1.17 1.17 97 1018.4
20260903033052 66 273 1.0 2.0 0.15 1.16 1.16 98 1015.0
20260903031600 66 273 1.0 2.0 0.16 1.13 1.13 98 1015.8
20260903030054 65 273 1.0 2.0 0.16 1.09 1.09 98 1016.2
20260903024554 65 273 1.0 2.0 0.60 1.04 1.04 97 1017.1
20260903023120 64 273 1.0 2.0 0.78 1.01 1.01 97 1017.8
20260903021556 64 273 1.0 2.0 0.74 0.97 0.97 97 1016.5
20260903020059 64 273 1.0 4.0 0.69 0.92 0.92 96 1017.1
20260903014601 67 9 4.0 14.0 0.18 0.41 0.41 95 1019.1
20260903013053 68 0 1.0 3.0 0.01 0.23 0.23 97 1016.6
20260903011557 68 178 1.0 2.0 0.01 0.23 0.23 97 1017.0
20260903010058 68 205 1.0 4.0 0.01 0.23 0.23 97 1016.5
20260903004555 68 190 1.0 2.0 0.01 0.23 0.23 96 1015.9
20260903003053 68 178 1.0 4.0 0.00 0.22 0.22 96 1015.8
20260903001556 68 188 1.0 3.0 0.00 0.22 0.22 97 1016.2
20260903000053 68 168 1.0 3.0 0.00 0.22 0.22 97 1016.0
20260902234603 68 205 1.0 4.0 0.00 0.22 0.22 97 1015.9
20260902233047 68 162 1.0 4.0 0.00 0.22 0.22 97 1016.0
20260902231600 68 137 0.0 2.0 0.00 0.22 0.22 97 1016.5
20260902230053 68 0 1.0 4.0 0.00 0.22 0.22 97 1016.1
20260902224600 68 146 1.0 4.0 0.00 0.22 0.22 97 1015.9
20260902223101 69 170 1.0 5.0 0.00 0.22 0.22 97 1015.9